Total_Precipitation_Accumulation
0.00 0.00 0.00 0.00 0.00 0.00 0.01 0.05 0.10 0.13 0.18 0.22 0.22 0.26 0.31 0.37 0.61 1.03 0.49 0.27 0.21 0.12 0.05 0.03 0.04 0.05 0.07 0.10 0.13 0.16 0.15 0.14 0.12 0.13 0.12 0.12 0.12 0.12 0.13 0.14 0.16 0.23 0.25 0.24 0.24 0.27 0.26 0.23 0.17
0.00 0.00 0.00 0.00 0.00 0.00 0.02 0.07 0.13 0.13 0.17 0.22 0.24 0.25 0.23 0.25 0.26 0.26 0.25 0.21 0.14 0.09 0.07 0.04 0.04 0.05 0.05 0.08 0.10 0.14 0.17 0.19 0.19 0.20 0.15 0.13 0.13 0.13 0.14 0.14 0.17 0.20 0.22 0.20 0.19 0.19 0.17 0.14 0.12
0.00 0.00 0.00 0.00 0.00 0.01 0.06 0.13 0.19 0.14 0.16 0.20 0.30 0.37 0.34 0.32 0.30 0.28 0.24 0.19 0.13 0.10 0.11 0.09 0.07 0.07 0.06 0.06 0.09 0.15 0.19 0.20 0.22 0.22 0.19 0.15 0.12 0.13 0.15 0.19 0.23 0.25 0.25 0.26 0.26 0.21 0.14 0.11 0.11
0.00 0.00 0.00 0.00 0.01 0.02 0.06 0.11 0.15 0.15 0.21 0.23 0.27 0.37 0.39 0.36 0.29 0.29 0.28 0.23 0.13 0.10 0.09 0.09 0.11 0.10 0.09 0.08 0.09 0.16 0.22 0.24 0.22 0.22 0.22 0.20 0.16 0.15 0.20 0.27 0.30 0.30 0.29 0.34 0.39 0.32 0.22 0.15 0.12
0.00 0.00 0.00 0.00 0.01 0.04 0.07 0.08 0.09 0.12 0.18 0.22 0.28 0.44 0.62 0.61 0.42 0.38 0.34 0.31 0.22 0.14 0.11 0.13 0.16 0.14 0.14 0.14 0.16 0.22 0.25 0.27 0.29 0.27 0.27 0.27 0.21 0.18 0.23 0.31 0.35 0.35 0.33 0.33 0.30 0.24 0.20 0.16 0.14
0.00 0.00 0.00 0.00 0.04 0.05 0.06 0.06 0.07 0.12 0.20 0.26 0.35 0.57 0.93 0.96 0.73 0.60 0.47 0.50 0.43 0.28 0.16 0.18 0.21 0.23 0.22 0.23 0.27 0.30 0.29 0.31 0.31 0.32 0.32 0.28 0.21 0.20 0.24 0.32 0.39 0.44 0.40 0.31 0.24 0.18 0.15 0.15 0.15
0.00 0.00 0.00 0.00 0.03 0.06 0.06 0.05 0.08 0.13 0.22 0.36 0.43 0.63 0.96 1.02 0.88 0.73 0.70 0.72 0.64 0.53 0.40 0.30 0.28 0.31 0.33 0.33 0.33 0.36 0.36 0.34 0.33 0.32 0.31 0.29 0.26 0.22 0.27 0.33 0.38 0.36 0.29 0.25 0.22 0.17 0.14 0.12 0.10
0.00 0.00 0.00 0.00 0.01 0.05 0.07 0.08 0.11 0.15 0.31 0.40 0.43 0.65 1.09 1.14 0.94 0.86 0.95 0.90 0.91 1.04 1.18 0.76 0.43 0.35 0.33 0.33 0.41 0.46 0.48 0.47 0.42 0.36 0.31 0.28 0.28 0.28 0.32 0.33 0.33 0.30 0.23 0.19 0.19 0.16 0.13 0.10 0.10
0.00 0.00 0.00 0.00 0.02 0.06 0.11 0.10 0.14 0.16 0.36 0.39 0.33 0.54 0.97 1.02 0.89 0.93 1.13 1.26 1.17 1.33 1.56 1.02 0.69 0.58 0.54 0.55 0.53 0.58 0.60 0.56 0.51 0.44 0.41 0.39 0.43 0.57 0.60 0.47 0.46 0.35 0.29 0.26 0.25 0.21 0.16 0.14 0.13
0.00 0.00 0.01 0.01 0.02 0.07 0.13 0.12 0.18 0.26 0.35 0.41 0.39 0.45 0.69 0.98 1.05 1.04 1.21 1.66 1.66 1.43 1.28 1.22 1.14 0.96 0.82 0.81 0.84 0.82 0.72 0.70 0.64 0.69 0.58 0.64 0.97 1.08 0.93 0.88 0.75 0.59 0.48 0.40 0.38 0.36 0.29 0.22 0.21
0.00 0.00 0.01 0.03 0.05 0.08 0.08 0.12 0.20 0.36 0.40 0.45 0.55 0.64 0.89 1.09 1.19 1.28 1.41 1.71 2.01 2.00 1.50 1.35 1.29 1.21 1.10 1.16 1.25 1.23 1.15 1.12 1.02 1.10 0.96 1.05 1.18 1.14 1.15 1.20 1.04 0.94 0.80 0.78 0.80 0.62 0.50 0.46 0.49
0.00 0.00 0.01 0.07 0.08 0.05 0.05 0.14 0.17 0.23 0.46 0.59 0.70 0.84 1.06 1.14 1.30 1.61 1.66 1.83 2.01 2.19 1.94 1.53 1.51 1.53 1.67 1.70 1.59 1.52 1.56 1.54 1.43 1.46 1.31 1.38 1.51 1.53 1.46 1.57 1.48 1.44 1.33 1.30 1.16 1.03 0.87 0.78 0.68
0.00 0.01 0.01 0.02 0.05 0.06 0.07 0.16 0.21 0.21 0.24 0.42 0.55 0.81 1.09 0.99 1.29 1.70 1.78 2.03 2.20 2.17 1.98 1.81 1.93 1.93 1.94 1.93 2.02 1.92 1.85 2.00 1.99 1.99 1.85 1.80 1.72 1.64 1.63 1.65 1.69 1.63 1.69 1.69 1.58 1.35 1.16 1.00 0.86
0.00 0.00 0.01 0.01 0.03 0.08 0.09 0.15 0.20 0.19 0.19 0.29 0.39 0.54 0.78 0.98 1.23 1.55 1.78 2.20 2.25 2.09 2.11 2.06 2.23 2.08 2.00 2.08 2.24 2.20 2.07 2.25 2.43 2.59 2.50 2.21 2.04 1.94 1.91 1.98 1.99 1.79 1.79 1.88 1.91 1.73 1.50 1.26 1.10
0.00 0.01 0.01 0.02 0.02 0.04 0.07 0.14 0.23 0.20 0.21 0.23 0.27 0.41 0.63 0.92 1.14 1.59 1.87 2.22 2.26 2.18 2.09 2.11 2.00 2.14 2.24 2.33 2.32 2.27 2.31 2.46 2.62 2.76 2.82 2.53 2.22 2.21 2.17 2.27 2.27 1.98 1.90 2.04 2.13 2.04 1.87 1.54 1.30
0.01 0.01 0.02 0.03 0.04 0.05 0.08 0.25 0.38 0.38 0.29 0.28 0.34 0.39 0.61 0.97 1.17 1.56 1.83 2.03 2.06 2.19 2.40 2.32 1.97 2.19 2.34 2.38 2.38 2.28 2.39 2.60 2.75 2.76 2.87 2.75 2.42 2.30 2.31 2.25 2.15 2.09 2.15 2.33 2.49 2.39 2.29 2.03 1.78
0.01 0.03 0.06 0.06 0.06 0.05 0.10 0.27 0.42 0.41 0.33 0.34 0.37 0.49 0.67 0.92 1.22 1.54 1.83 2.14 2.21 2.43 2.81 2.51 2.10 2.17 2.26 2.43 2.57 2.46 2.50 2.77 3.00 3.07 2.94 2.64 2.44 2.43 2.50 2.49 2.48 2.42 2.46 2.51 2.47 2.59 2.43 2.46 2.27
0.01 0.04 0.10 0.11 0.08 0.08 0.10 0.21 0.34 0.46 0.45 0.45 0.47 0.62 0.80 0.87 1.00 1.22 1.62 2.02 2.26 2.64 3.12 2.74 2.25 2.28 2.44 2.43 2.43 2.59 2.77 3.05 3.29 3.21 3.01 2.84 2.83 2.81 2.86 2.82 2.86 2.91 2.96 2.79 2.71 2.67 2.48 2.38 2.30
0.02 0.04 0.08 0.12 0.10 0.11 0.14 0.25 0.35 0.46 0.53 0.49 0.58 0.76 0.77 0.78 0.90 1.04 1.47 1.89 2.22 2.66 2.92 2.87 2.63 2.65 2.77 2.84 2.65 2.82 3.11 3.44 3.69 3.61 3.52 3.48 3.42 3.35 3.34 3.35 3.29 3.17 3.12 2.98 2.82 2.63 2.52 2.35 2.14
0.02 0.04 0.06 0.08 0.07 0.08 0.17 0.35 0.52 0.58 0.70 0.68 0.69 0.84 0.80 0.80 0.93 1.14 1.52 1.78 2.15 2.51 2.61 2.83 2.92 2.90 2.78 3.04 3.29 3.56 3.87 4.04 4.31 4.57 4.63 4.51 4.27 4.03 3.84 3.74 3.53 3.21 3.03 2.92 2.74 2.57 2.44 2.24 2.05
0.00 0.01 0.05 0.08 0.07 0.10 0.23 0.58 0.74 0.85 0.84 0.87 0.87 1.02 1.03 1.05 1.15 1.32 1.55 1.72 1.97 2.34 2.57 2.82 3.05 3.10 3.04 3.45 3.99 4.49 4.76 4.78 4.84 4.90 4.97 4.91 4.49 4.13 3.85 3.55 3.33 3.10 2.91 2.79 2.71 2.56 2.44 2.25 2.07
0.00 0.00 0.01 0.05 0.08 0.17 0.22 0.57 0.87 1.00 1.06 0.99 1.01 1.01 1.15 1.05 1.04 1.21 1.41 1.75 1.84 2.13 2.38 2.61 2.92 3.27 3.56 3.98 4.50 5.08 5.39 5.54 5.45 5.14 4.90 4.59 4.18 3.80 3.35 3.12 3.10 2.93 2.71 2.54 2.37 2.21 2.14 2.09 2.00
0.01 0.00 0.01 0.05 0.08 0.16 0.22 0.42 0.81 1.04 1.06 1.05 1.06 1.03 1.05 1.00 0.93 1.01 1.12 1.37 1.62 1.86 2.11 2.42 2.76 3.12 3.72 4.45 5.04 5.48 5.81 5.78 5.38 4.90 4.34 3.90 3.56 3.26 2.98 2.76 2.76 2.67 2.43 2.18 1.93 1.76 1.69 1.70 1.75
0.00 0.01 0.04 0.07 0.11 0.25 0.22 0.40 0.83 1.06 1.09 1.15 1.12 1.11 1.10 1.04 0.97 0.96 0.98 1.17 1.38 1.55 1.81 2.17 2.58 2.89 3.42 4.08 4.70 5.07 5.34 5.28 4.90 4.28 3.75 3.37 3.01 2.70 2.44 2.18 2.03 1.91 1.74 1.63 1.53 1.41 1.37 1.36 1.43
0.01 0.02 0.12 0.24 0.27 0.27 0.25 0.44 0.88 1.05 1.12 1.18 1.20 1.24 1.17 1.09 1.04 0.98 0.92 1.00 1.16 1.29 1.51 1.75 2.13 2.60 2.97 3.35 3.90 4.07 4.12 3.96 3.59 3.31 3.09 2.71 2.34 2.04 1.80 1.61 1.48 1.40 1.32 1.26 1.25 1.24 1.22 1.15 1.12
0.01 0.02 0.15 0.27 0.33 0.40 0.48 0.77 1.17 1.16 1.20 1.20 1.20 1.15 1.10 1.08 0.96 0.93 0.88 0.93 1.06 1.18 1.38 1.54 1.79 2.17 2.47 2.61 2.79 2.80 2.72 2.65 2.53 2.34 2.11 1.87 1.63 1.49 1.37 1.21 1.10 1.08 1.10 1.06 1.04 1.02 0.98 0.92 0.85
0.02 0.03 0.07 0.12 0.19 0.36 0.67 1.03 1.41 1.54 1.44 1.29 1.26 1.14 1.06 1.03 0.95 0.92 0.86 0.88 0.99 1.08 1.26 1.34 1.36 1.51 1.63 1.70 1.78 1.86 1.85 1.75 1.73 1.66 1.48 1.35 1.19 1.05 0.98 0.89 0.85 0.82 0.77 0.71 0.67 0.68 0.70 0.73 0.73
0.02 0.03 0.06 0.12 0.26 0.47 0.74 1.18 1.47 1.74 1.64 1.33 1.18 1.06 0.99 0.97 0.96 0.94 0.89 0.86 0.84 0.87 0.97 1.08 1.10 1.12 1.13 1.17 1.15 1.23 1.23 1.16 1.08 1.00 0.95 0.85 0.75 0.65 0.62 0.57 0.56 0.57 0.59 0.56 0.54 0.56 0.59 0.61 0.63
0.05 0.05 0.07 0.13 0.19 0.37 0.75 1.28 1.41 1.80 1.81 1.59 1.33 1.08 1.04 1.09 1.06 0.99 0.92 0.85 0.78 0.75 0.75 0.82 0.87 0.93 0.97 0.97 0.95 0.95 0.92 0.84 0.78 0.75 0.69 0.60 0.53 0.49 0.47 0.47 0.46 0.47 0.50 0.53 0.57 0.59 0.61 0.67 0.65
0.08 0.09 0.11 0.24 0.27 0.28 0.67 1.45 1.52 1.62 1.75 1.73 1.59 1.35 1.20 1.14 1.05 0.96 0.88 0.82 0.75 0.70 0.65 0.66 0.69 0.68 0.75 0.79 0.83 0.84 0.77 0.72 0.68 0.63 0.58 0.54 0.48 0.46 0.47 0.47 0.44 0.41 0.40 0.43 0.49 0.55 0.57 0.63 0.64